Location: Antoign�
(47.0844°N, 0.1131°W)
Time: 02:42:29
(UTC+00:00)

Cosmos 2333 Rocket - Pass Details

Date: 03 March 2021
Orbit: 837 x 864 km, 70.8° (Epoch: 17 April)

Event Time Altitude Azimuth Distance (km) Brightness Sun altitude
Rises 18:47:08 0° 165° (SSE) 3,386 5.2 -10.7°
Reaches altitude 10° 18:50:02 10° 151° (SSE) 2,460 4.3 -11.2°
Maximum altitude 18:54:19 23° 101° (ESE) 1,748 3.2 -11.9°
Drops below altitude 10° 18:58:37 10° 52° (NE) 2,488 4.2 -12.6°
Sets 19:01:34 0° 38° (NE) 3,434 5.0 -13.1°
